Location: Black Swamp Observatory
(41.3920°N, 84.1250°W)
Time: 05:46:54
(UTC-04:00)

Amateur Radio Satellites - All Passes

Search period start: 01 August 2015 05:16
Search period end: 02 August 2015 05:16
Location: Black Swamp Observatory, 41.3920°N, 84.1250°W

Satellite Date Start Highest point End Downlink Frequencies (MHz)
Time Altitude Azimuth
ISS 01 Aug 05:29:37 05:32:21 24° 225° (SW) 05:35:02 145.825
Cosmos 2504 01 Aug 05:31:21 05:37:05 24° 295° (WNW) 05:42:53 435.465 / 435.565
ITAMSAT 1 01 Aug 05:31:46 05:35:37 21° 296° (WNW) 05:39:19 435.822/435.867
MOZHAYETS 4 01 Aug 05:36:00 05:40:35 60° 260° (W) 05:45:13
HORYU 2 01 Aug 05:43:57 05:48:29 84° 284° (WNW) 05:52:59 437.375
CUBESAT XI-V 01 Aug 05:54:04 05:57:19 20° 66° (ENE) 06:00:43 437.345
JAS-2 01 Aug 06:00:01 06:07:17 42° 293° (WNW) 06:14:25 435.910
AO-7 01 Aug 06:03:38 06:12:03 87° 288° (WNW) 06:20:21 29.400- 29.500
GONETS M04 01 Aug 06:14:34 06:22:08 36° 86° (E) 06:29:53
STRAND 1 01 Aug 06:21:36 06:24:04 14° 61° (ENE) 06:26:48 437.568
RS-15 01 Aug 06:34:01 06:45:23 54° 46° (NE) 06:57:16 29.354- 29.394
DANDE 01 Aug 06:39:46 06:41:09 12° 286° (WNW) 06:42:21 436.750
CUTE-I 01 Aug 06:57:56 07:01:46 20° 91° (E) 07:05:44 437.470
PRISM 01 Aug 07:02:22 07:05:35 22° 68° (ENE) 07:08:53 437.425
CUBESAT XI-V 01 Aug 07:29:59 07:34:29 45° 262° (W) 07:38:58 437.345
Cubesat XI-IV 01 Aug 07:41:01 07:46:12 51° 99° (E) 07:51:23 437.490
STRAND 1 01 Aug 07:57:33 08:02:43 79° 258° (WSW) 08:07:53 437.568
AO-7 01 Aug 07:57:55 08:03:52 21° 308° (NW) 08:09:29 29.400- 29.500
Cosmos 2499 01 Aug 07:58:35 08:05:06 36° 87° (E) 08:12:12 435.465 / 435.565
BEESAT 2 01 Aug 08:05:08 08:07:11 14° 39° (NE) 08:09:21 435.950
GONETS M04 01 Aug 08:10:24 08:18:48 49° 286° (WNW) 08:27:09
CUTE-I 01 Aug 08:37:02 08:42:11 50° 289° (WNW) 08:47:17 437.470
PRISM 01 Aug 08:37:07 08:40:52 31° 263° (W) 08:44:36 437.425
BRITE-PL 01 Aug 08:38:41 08:42:17 25° 95° (E) 08:46:11 437.365/2234.400
BEESAT 3 01 Aug 08:43:58 08:47:41 34° 50° (NE) 08:51:22 437.485
RS-15 01 Aug 08:46:44 08:57:59 51° 248° (WSW) 09:09:27 29.354- 29.394
GOMX 1 01 Aug 08:49:54 08:53:12 20° 93° (E) 08:56:48 467.674
PCSat 01 Aug 08:54:51 08:58:07 17° 106° (ESE) 09:01:38 145.827
SO-50 01 Aug 09:02:51 09:04:52 13° 108° (ESE) 09:07:09 436.795
SEEDS 01 Aug 09:09:28 09:10:10 10° 87° (E) 09:11:09 437.485
CUTE 1.7 + AOD 2 01 Aug 09:10:58 09:13:14 14° 89° (E) 09:15:42 437.475
CANX-2 01 Aug 09:18:42 09:21:48 20° 92° (E) 09:25:01 2200.000
Cubesat XI-IV 01 Aug 09:21:57 09:25:59 22° 296° (WNW) 09:29:51 437.490
M-CUBED/EXP-1 PRIME 01 Aug 09:30:26 09:34:07 35° 65° (ENE) 09:38:08 437.505
AAUSAT CUBESAT 2 01 Aug 09:34:38 09:36:42 14° 89° (E) 09:38:58 437.432
AIST 2 01 Aug 09:37:11 09:40:36 24° 46° (NE) 09:44:02 435.215
HO-68 01 Aug 09:37:33 09:44:07 38° 97° (E) 09:50:46 435.675
BEESAT 2 01 Aug 09:41:44 09:45:49 79° 239° (WSW) 09:49:49 435.950
Cosmos 2499 01 Aug 09:51:06 09:58:08 43° 288° (WNW) 10:05:38 435.465 / 435.565
AUBIESAT-1 01 Aug 09:59:23 10:03:23 62° 69° (ENE) 10:07:46 437.475
DOVE 4 01 Aug 10:15:10 10:19:47 87° 283° (WNW) 10:24:42 437.250
BRITE-PL 01 Aug 10:17:01 10:20:52 30° 289° (WNW) 10:24:54 437.365/2234.400
ZACube-1 01 Aug 10:17:03 10:18:50 12° 88° (E) 10:20:53 437.345
BEESAT 3 01 Aug 10:22:17 10:25:27 22° 247° (WSW) 10:28:30 437.485
CINEMA 3 01 Aug 10:24:11 10:28:47 54° 99° (E) 10:33:34 145.822/145.860
COMPASS 1 01 Aug 10:27:04 10:31:17 65° 101° (E) 10:35:28 437.405
GOMX 1 01 Aug 10:27:16 10:31:30 40° 288° (WNW) 10:35:58 467.674
UNISAT 6 01 Aug 10:29:48 10:33:17 24° 68° (ENE) 10:36:54 437.425
PCSat 01 Aug 10:35:40 10:41:02 67° 302° (WNW) 10:46:28 145.827
FUNcube-1 01 Aug 10:37:28 10:40:47 20° 92° (E) 10:44:15 145.935
UWE-3 01 Aug 10:39:22 10:43:20 29° 95° (E) 10:47:24 435.000/436.395/437.385
SO-50 01 Aug 10:40:03 10:44:48 76° 304° (WNW) 10:49:44 436.795
SEEDS 01 Aug 10:42:15 10:46:30 66° 285° (WNW) 10:50:42 437.485
POPSAT HIP 1 01 Aug 10:43:09 10:44:53 13° 64° (ENE) 10:46:49 437.405
CUTE 1.7 + AOD 2 01 Aug 10:45:19 10:49:30 49° 287° (WNW) 10:53:37 437.475
Oscar 11 01 Aug 10:49:38 10:53:49 42° 98° (E) 10:57:57 145.826/435.025
QB50P2 01 Aug 10:50:03 10:52:30 16° 66° (ENE) 10:55:07 145.880/145.840
O/OREOS (USA 219) 01 Aug 10:51:50 10:53:40 12° 49° (NE) 10:55:42 437.305
CANX-2 01 Aug 10:53:54 10:57:52 35° 289° (WNW) 11:01:46 2200.000
DELFI C3 01 Aug 10:54:11 10:57:49 31° 96° (E) 11:01:26 145.870
CUBEBUG 2 01 Aug 10:54:40 10:59:13 53° 99° (E) 11:03:51 437.445
HUMSAT D 01 Aug 11:02:33 11:05:00 15° 90° (E) 11:07:36 437.325/437.525
M-CUBED/EXP-1 PRIME 01 Aug 11:05:56 11:09:03 21° 264° (W) 11:12:17 437.505
AAUSAT CUBESAT 2 01 Aug 11:08:34 11:12:39 49° 287° (WNW) 11:16:41 437.432
TIGRISAT 01 Aug 11:12:08 11:16:25 66° 75° (ENE) 11:20:50 435.000
DUCHIFAT 1 01 Aug 11:13:24 11:16:49 25° 69° (ENE) 11:20:18 145.980
ANTELSAT 01 Aug 11:13:56 11:18:16 72° 75° (ENE) 11:22:43 437.575/2403.000
AIST 2 01 Aug 11:15:25 11:19:16 36° 244° (WSW) 11:23:03 435.215
QB50P1 01 Aug 11:16:34 11:20:10 29° 70° (ENE) 11:23:49 145.935-145.965
NANOSAT C BR1 01 Aug 11:17:44 11:21:19 29° 70° (ENE) 11:24:59 145.865
DX 1 01 Aug 11:20:27 11:22:56 15° 91° (E) 11:25:36 434.975-435.025
HO-68 01 Aug 11:25:14 11:31:55 42° 295° (WNW) 11:38:32 435.675
VELOX 1 01 Aug 11:35:39 11:37:39 13° 89° (E) 11:39:53 145.980
AUBIESAT-1 01 Aug 11:37:06 11:38:42 12° 268° (W) 11:40:05 437.475
YUBILEINY 01 Aug 11:42:13 11:50:21 41° 71° (ENE) 11:58:37 435.215
ESTCUBE 1 01 Aug 11:47:53 11:49:49 13° 89° (E) 11:52:00 437.505/2401.250
ZACube-1 01 Aug 11:51:10 11:55:41 65° 285° (WNW) 12:00:13 437.345
POLYITAN 1 01 Aug 11:59:04 12:03:16 89° 82° (E) 12:07:30 437.675
CINEMA 3 01 Aug 12:02:31 12:05:39 17° 294° (WNW) 12:08:41 145.822/145.860
COMPASS 1 01 Aug 12:04:48 12:06:27 12° 296° (WNW) 12:07:54 437.405
UNISAT 6 01 Aug 12:06:04 12:09:56 31° 265° (W) 12:13:53 437.425
AIST 1 01 Aug 12:06:25 12:09:19 18° 88° (E) 12:12:20
FUNcube-1 01 Aug 12:13:01 12:17:16 39° 288° (WNW) 12:21:31 145.935
UWE-3 01 Aug 12:15:49 12:19:48 29° 290° (WNW) 12:23:46 435.000/436.395/437.385
POPSAT HIP 1 01 Aug 12:16:10 12:20:18 60° 260° (W) 12:24:28 437.405
Cosmos 2491 01 Aug 12:16:55 12:24:14 32° 85° (E) 12:31:45 435.465 / 435.565
BUGSAT 1 01 Aug 12:19:26 12:23:29 89° 240° (WSW) 12:27:32 437.445
50 SAT 01 Aug 12:21:14 12:25:09 51° 100° (E) 12:29:00 437.505
PCSat 01 Aug 12:22:59 12:25:37 13° 324° (NW) 12:28:02 145.827
SO-50 01 Aug 12:23:32 12:26:16 14° 325° (NW) 12:28:53 436.795
QB50P2 01 Aug 12:24:00 12:28:03 46° 261° (W) 12:32:08 145.880/145.840
Oscar 11 01 Aug 12:26:40 12:29:41 18° 294° (WNW) 12:32:35 145.826/435.025
UKube-1 01 Aug 12:26:46 12:31:06 76° 102° (ESE) 12:35:25 .
O/OREOS (USA 219) 01 Aug 12:29:11 12:33:48 82° 247° (WSW) 12:38:24 437.305
DELFI C3 01 Aug 12:29:37 12:32:43 21° 292° (WNW) 12:35:42 145.870
AISAT 01 Aug 12:31:16 12:35:36 56° 100° (E) 12:39:57 437.250
CUBEBUG 2 01 Aug 12:32:28 12:35:32 17° 294° (WNW) 12:38:29 437.445
HUMSAT D 01 Aug 12:36:51 12:41:02 48° 287° (WNW) 12:45:12 437.325/437.525
CUBEBUG 1 01 Aug 12:44:58 12:49:07 44° 99° (E) 12:53:16 437.445
DUCHIFAT 1 01 Aug 12:48:59 12:52:33 26° 265° (W) 12:56:05 145.980
TIGRISAT 01 Aug 12:52:27 12:53:46 11° 273° (W) 12:54:50 435.000
QB50P1 01 Aug 12:52:36 12:56:02 23° 266° (W) 12:59:24 145.935-145.965
NANOSAT C BR1 01 Aug 12:53:46 12:57:11 23° 266° (W) 13:00:30 145.865
DX 1 01 Aug 12:55:18 12:59:29 47° 288° (WNW) 13:03:39 434.975-435.025
VELOX 1 01 Aug 13:10:17 13:14:37 56° 287° (WNW) 13:18:56 145.980
SPROUT 01 Aug 13:20:20 13:24:12 32° 96° (E) 13:28:05 437.525
ESTCUBE 1 01 Aug 13:22:43 13:27:10 59° 286° (WNW) 13:31:34 437.505/2401.250
Cosmos 2504 01 Aug 13:23:10 13:29:20 23° 64° (ENE) 13:35:56 435.465 / 435.565
TISAT 1 01 Aug 13:31:30 13:35:00 25° 95° (E) 13:38:33 437.305
ITAMSAT 1 01 Aug 13:34:48 13:35:47 11° 59° (ENE) 13:37:05 435.822/435.867
YUBILEINY 01 Aug 13:39:03 13:47:20 45° 271° (W) 13:55:28 435.215
AIST 1 01 Aug 13:42:40 13:46:43 36° 284° (WNW) 13:50:44
Oscar 19 01 Aug 13:48:00 13:52:53 50° 72° (ENE) 13:57:51 437.125/150
50 SAT 01 Aug 13:57:21 13:59:19 13° 295° (WNW) 14:01:05 437.505
UKube-1 01 Aug 14:05:30 14:06:41 11° 298° (WNW) 14:07:39 .
AISAT 01 Aug 14:09:16 14:11:46 15° 296° (WNW) 14:14:07 437.250
Cosmos 2491 01 Aug 14:12:09 14:20:44 55° 284° (WNW) 14:29:17 435.465 / 435.565
BEESAT 01 Aug 14:15:44 14:17:55 13° 89° (E) 14:20:23 436.000
CUBEBUG 1 01 Aug 14:22:17 14:25:10 17° 294° (WNW) 14:27:56 437.445
JAS-2 01 Aug 14:29:12 14:33:15 19° 57° (ENE) 14:37:51 435.910
SWISSCUBE 01 Aug 14:35:06 14:38:52 23° 93° (E) 14:42:44 437.505
Gurwin Techsat 1B 01 Aug 14:49:02 14:54:12 57° 73° (ENE) 14:59:26 435.225
ITUPSAT 1 01 Aug 14:55:50 15:00:10 34° 96° (E) 15:04:31 437.325
SPROUT 01 Aug 14:56:43 15:00:07 23° 292° (WNW) 15:03:26 437.525
TISAT 1 01 Aug 15:07:09 15:10:44 27° 291° (WNW) 15:14:15 437.305
ITAMSAT 1 01 Aug 15:09:19 15:14:32 78° 75° (ENE) 15:19:46 435.822/435.867
AO-7 01 Aug 15:11:41 15:18:29 30° 57° (ENE) 15:25:29 29.400- 29.500
Cosmos 2504 01 Aug 15:14:07 15:22:34 80° 264° (W) 15:31:11 435.465 / 435.565
Oscar 19 01 Aug 15:28:52 15:32:35 20° 269° (W) 15:36:10 437.125/150
DANDE 01 Aug 15:31:58 15:34:47 20° 76° (ENE) 15:38:18 436.750
CUSAT 1 01 Aug 15:48:46 15:52:51 52° 79° (E) 15:58:17 437.405
BEESAT 01 Aug 15:51:33 15:56:17 64° 287° (WNW) 16:01:00 436.000
STARS 01 Aug 16:10:40 16:13:58 21° 93° (E) 16:17:22 437.465
JAS-2 01 Aug 16:11:19 16:17:23 83° 257° (WSW) 16:24:22 435.910
SWISSCUBE 01 Aug 16:12:27 16:16:51 36° 290° (WNW) 16:21:10 437.505
Cosmos 2491 01 Aug 16:19:00 16:20:14 10° 309° (NW) 16:20:44 435.465 / 435.565
GONETS M04 01 Aug 16:24:59 16:30:12 18° 59° (ENE) 16:35:55
Gurwin Techsat 1B 01 Aug 16:30:55 16:34:38 18° 270° (W) 16:38:08 435.225
ITUPSAT 1 01 Aug 16:33:57 16:37:57 26° 293° (WNW) 16:41:49 437.325
KKS-1 01 Aug 16:37:37 16:42:05 69° 102° (ESE) 16:46:33 437.445
HORYU 2 01 Aug 16:41:58 16:46:25 90° 196° (SSW) 16:50:56 437.375
ITAMSAT 1 01 Aug 16:52:25 16:54:45 12° 273° (W) 16:56:45 435.822/435.867
AO-7 01 Aug 17:02:25 17:10:45 68° 256° (WSW) 17:19:06 29.400- 29.500
Cosmos 2504 01 Aug 17:08:55 17:13:41 16° 281° (WNW) 17:17:57 435.465 / 435.565
DANDE 01 Aug 17:14:22 17:17:50 30° 262° (W) 17:22:11 436.750
Cubesat XI-IV 01 Aug 17:27:09 17:29:01 12° 59° (ENE) 17:31:11 437.490
MOZHAYETS 4 01 Aug 17:31:18 17:35:26 32° 95° (E) 17:39:34
SO-50 01 Aug 17:32:06 17:35:21 17° 38° (NE) 17:38:41 436.795
CUSAT 1 01 Aug 17:32:41 17:35:23 15° 265° (W) 17:38:14 437.405
PCSat 01 Aug 17:41:10 17:44:45 18° 41° (NE) 17:48:28 145.827
STARS 01 Aug 17:46:28 17:50:32 36° 289° (WNW) 17:54:34 437.465
Cosmos 2499 01 Aug 17:49:46 17:54:07 15° 57° (ENE) 17:59:06 435.465 / 435.565
JAS-2 01 Aug 18:01:28 18:03:58 12° 280° (W) 18:06:06 435.910
KKS-1 01 Aug 18:16:13 18:18:13 13° 297° (WNW) 18:20:00 437.445
CUTE-I 01 Aug 18:19:33 18:24:20 35° 68° (ENE) 18:29:10 437.470
GONETS M04 01 Aug 18:19:55 18:28:41 84° 82° (E) 18:37:28
VERMONT LUNAR 01 Aug 18:49:43 18:52:18 23° 155° (SSE) 18:54:56 437.305
AO-7 01 Aug 19:02:28 19:05:21 11° 277° (W) 19:07:28 29.400- 29.500
Cubesat XI-IV 01 Aug 19:03:02 19:08:24 85° 78° (ENE) 19:13:49 437.490
MOZHAYETS 4 01 Aug 19:08:41 19:12:34 26° 292° (WNW) 19:16:18
SO-50 01 Aug 19:11:36 19:16:35 84° 241° (WSW) 19:21:27 436.795
PCSat 01 Aug 19:23:28 19:28:55 83° 244° (WSW) 19:34:20 145.827
CUBESAT XI-V 01 Aug 19:26:27 19:30:51 43° 98° (E) 19:35:14 437.345
Cosmos 2499 01 Aug 19:40:26 19:49:12 71° 79° (E) 19:58:04 435.465 / 435.565
BRITE-PL 01 Aug 19:50:19 19:53:59 27° 70° (ENE) 19:57:35 437.365/2234.400
GOMX 1 01 Aug 19:59:11 20:02:10 20° 68° (ENE) 20:05:14 467.674
CUTE-I 01 Aug 19:59:41 20:04:27 31° 265° (W) 20:09:08 437.470
CUTE 1.7 + AOD 2 01 Aug 20:05:14 20:06:35 11° 64° (ENE) 20:08:08 437.475
HO-68 01 Aug 20:06:48 20:12:41 30° 61° (ENE) 20:18:45 435.675
STRAND 1 01 Aug 20:08:19 20:12:57 35° 96° (E) 20:17:36 437.568
CANX-2 01 Aug 20:12:30 20:14:57 16° 66° (ENE) 20:17:34 2200.000
GONETS M04 01 Aug 20:18:39 20:24:34 20° 280° (W) 20:30:03
PRISM 01 Aug 20:18:57 20:22:41 33° 97° (E) 20:26:25 437.425
VERMONT LUNAR 01 Aug 20:25:36 20:28:46 65° 171° (S) 20:31:55 437.305
AAUSAT CUBESAT 2 01 Aug 20:27:17 20:27:55 10° 63° (ENE) 20:28:48 437.432
ISS 01 Aug 20:35:03 20:35:28 10° 130° (SE) 20:36:00 145.825
Cubesat XI-IV 01 Aug 20:47:13 20:49:18 12° 273° (W) 20:51:02 437.490
PHONESAT 2.4 01 Aug 20:48:30 20:51:32 28° 156° (SSE) 20:54:36 2401.200-2431.200
RS-15 01 Aug 21:00:20 21:08:44 28° 105° (ESE) 21:17:46 29.354- 29.394
CUBESAT XI-V 01 Aug 21:04:41 21:08:00 19° 294° (WNW) 21:11:11 437.345
PCSat 01 Aug 21:10:37 21:11:36 10° 257° (WSW) 21:12:13 145.827
COMPASS 1 01 Aug 21:18:05 21:22:05 44° 73° (ENE) 21:26:08 437.405
DOVE 4 01 Aug 21:21:22 21:25:32 85° 257° (WSW) 21:29:42 437.250
CINEMA 3 01 Aug 21:26:29 21:30:26 45° 73° (ENE) 21:34:30 145.822/145.860
BRITE-PL 01 Aug 21:28:55 21:32:33 24° 265° (W) 21:36:00 437.365/2234.400
SEEDS 01 Aug 21:33:51 21:38:05 86° 77° (ENE) 21:42:23 437.485
FUNcube-1 01 Aug 21:34:18 21:36:44 16° 65° (ENE) 21:39:23 145.935
Cosmos 2499 01 Aug 21:34:45 21:41:43 26° 277° (W) 21:48:26 435.465 / 435.565
GOMX 1 01 Aug 21:36:18 21:40:11 33° 264° (W) 21:43:57 467.674
UWE-3 01 Aug 21:37:15 21:40:28 22° 68° (ENE) 21:43:50 435.000/436.395/437.385
CUTE 1.7 + AOD 2 01 Aug 21:37:43 21:41:58 70° 259° (W) 21:46:16 437.475
DELFI C3 01 Aug 21:41:50 21:44:48 20° 68° (ENE) 21:47:53 145.870
Oscar 11 01 Aug 21:44:30 21:48:23 33° 71° (ENE) 21:52:20 145.826/435.025
CANX-2 01 Aug 21:46:21 21:50:30 49° 261° (W) 21:54:42 2200.000
STRAND 1 01 Aug 21:47:42 21:52:04 28° 293° (WNW) 21:56:19 437.568
HO-68 01 Aug 21:53:06 22:00:06 56° 259° (W) 22:07:07 435.675
CUBEBUG 2 01 Aug 21:53:17 21:57:12 41° 72° (ENE) 22:01:15 437.445
PRISM 01 Aug 21:54:52 21:57:56 20° 293° (WNW) 22:00:53 437.425
HUMSAT D 01 Aug 21:56:00 21:57:08 11° 63° (ENE) 21:58:30 437.325/437.525
AAUSAT CUBESAT 2 01 Aug 21:58:46 22:02:58 75° 258° (WSW) 22:07:12 437.432
VERMONT LUNAR 01 Aug 22:02:15 22:05:26 69° 188° (S) 22:08:35 437.305
ISS 01 Aug 22:08:13 22:11:28 87° 314° (NW) 22:14:45 145.825
DX 1 01 Aug 22:16:44 22:19:04 15° 64° (ENE) 22:21:34 434.975-435.025
PHONESAT 2.4 01 Aug 22:25:45 22:29:14 70° 173° (S) 22:32:45 2401.200-2431.200
Cosmos 2491 01 Aug 22:27:34 22:32:04 15° 57° (ENE) 22:37:07 435.465 / 435.565
VELOX 1 01 Aug 22:33:56 22:35:55 13° 64° (ENE) 22:38:07 145.980
M-CUBED/EXP-1 PRIME 01 Aug 22:45:38 22:49:51 31° 100° (E) 22:54:00 437.505
ZACube-1 01 Aug 22:47:03 22:51:15 82° 258° (WSW) 22:55:34 437.345
ESTCUBE 1 01 Aug 22:48:03 22:50:11 14° 64° (ENE) 22:52:32 437.505/2401.250
COMPASS 1 01 Aug 22:55:22 22:58:01 16° 270° (W) 23:00:30 437.405
TIGRISAT 01 Aug 23:04:58 23:07:32 15° 89° (E) 23:10:18 435.000
50 SAT 01 Aug 23:05:13 23:08:33 28° 71° (ENE) 23:11:59 437.505
CINEMA 3 01 Aug 23:05:39 23:08:00 14° 271° (W) 23:10:12 145.822/145.860
ANTELSAT 01 Aug 23:06:50 23:09:41 16° 90° (E) 23:12:44 437.575/2403.000
FUNcube-1 01 Aug 23:08:39 23:12:42 47° 262° (W) 23:16:51 145.935
RS-15 01 Aug 23:09:09 23:20:06 78° 306° (NW) 23:31:29 29.354- 29.394
UWE-3 01 Aug 23:13:05 23:16:51 31° 265° (W) 23:20:40 435.000/436.395/437.385
AUBIESAT-1 01 Aug 23:14:05 23:18:43 51° 104° (ESE) 23:23:13 437.475
DELFI C3 01 Aug 23:16:01 23:19:41 32° 264° (W) 23:23:21 145.870
Oscar 11 01 Aug 23:21:16 23:24:39 21° 267° (W) 23:27:58 145.826/435.025
UKube-1 01 Aug 23:21:23 23:25:39 65° 74° (ENE) 23:29:57 .
HUMSAT D 01 Aug 23:28:14 23:32:21 68° 259° (W) 23:36:32 437.325/437.525
AISAT 01 Aug 23:28:56 23:33:11 50° 73° (ENE) 23:37:28 437.250
CUBEBUG 2 01 Aug 23:31:27 23:34:10 16° 270° (W) 23:36:47 437.445
BEESAT 2 01 Aug 23:36:09 23:38:58 19° 112° (ESE) 23:41:54 435.950
VERMONT LUNAR 01 Aug 23:39:10 23:41:55 26° 203° (SSW) 23:44:37 437.305
CUBEBUG 1 01 Aug 23:41:09 23:45:08 37° 72° (ENE) 23:49:10 437.445
POLYITAN 1 01 Aug 23:45:42 23:48:01 15° 90° (E) 23:50:32 437.675
ISS 01 Aug 23:45:48 23:48:17 20° 343° (NNW) 23:50:45 145.825
AIST 1 01 Aug 23:49:21 23:53:30 50° 78° (ENE) 23:57:39
DX 1 01 Aug 23:50:40 23:54:55 54° 259° (W) 23:59:11 434.975-435.025
UNISAT 6 01 Aug 23:57:00 00:01:37 53° 99° (E) 00:06:14 437.425
POPSAT HIP 1 02 Aug 00:01:45 00:04:59 21° 93° (E) 00:08:20 437.405
BUGSAT 1 02 Aug 00:03:09 00:04:54 13° 90° (E) 00:06:52 437.445
PHONESAT 2.4 02 Aug 00:03:39 00:07:09 69° 190° (S) 00:10:39 2401.200-2431.200
VELOX 1 02 Aug 00:07:38 00:12:00 63° 259° (W) 00:16:24 145.980
QB50P2 02 Aug 00:09:19 00:12:56 27° 95° (E) 00:16:37 145.880/145.840
BEESAT 3 02 Aug 00:13:35 00:17:35 62° 120° (ESE) 00:21:39 437.485
SPROUT 02 Aug 00:14:49 00:18:19 26° 69° (ENE) 00:21:53 437.525
M-CUBED/EXP-1 PRIME 02 Aug 00:20:17 00:24:33 31° 296° (WNW) 00:28:40 437.505
ESTCUBE 1 02 Aug 00:22:04 00:26:35 65° 259° (W) 00:31:06 437.505/2401.250
Cosmos 2491 02 Aug 00:22:05 00:30:49 76° 80° (E) 00:39:33 435.465 / 435.565
TISAT 1 02 Aug 00:24:10 00:27:12 20° 67° (ENE) 00:30:19 437.305
DUCHIFAT 1 02 Aug 00:32:42 00:36:47 45° 99° (E) 00:40:53 145.980
QB50P1 02 Aug 00:36:30 00:40:40 53° 100° (E) 00:44:51 145.935-145.965
NANOSAT C BR1 02 Aug 00:37:25 00:41:35 53° 100° (E) 00:45:45 145.865
TIGRISAT 02 Aug 00:40:04 00:44:41 57° 286° (WNW) 00:49:17 435.000
50 SAT 02 Aug 00:40:11 00:43:10 20° 267° (W) 00:46:06 437.505
ANTELSAT 02 Aug 00:42:14 00:46:49 52° 286° (WNW) 00:51:23 437.575/2403.000
YUBILEINY 02 Aug 00:43:14 00:51:17 46° 89° (E) 00:59:31 435.215
AUBIESAT-1 02 Aug 00:49:34 00:53:02 20° 300° (WNW) 00:56:20 437.475
UKube-1 02 Aug 01:00:54 01:02:17 11° 272° (W) 01:03:24 .
O/OREOS (USA 219) 02 Aug 01:05:57 01:06:57 11° 99° (E) 01:08:14 437.305
AISAT 02 Aug 01:07:33 01:10:07 15° 270° (W) 01:12:29 437.250
AIST 2 02 Aug 01:12:45 01:16:47 44° 117° (ESE) 01:20:52 435.215
BEESAT 2 02 Aug 01:12:50 01:16:44 42° 308° (NW) 01:20:41 435.950
CUBEBUG 1 02 Aug 01:18:27 01:21:39 19° 268° (W) 01:24:45 437.445
POLYITAN 1 02 Aug 01:20:06 01:24:15 48° 287° (WNW) 01:28:22 437.675
BEESAT 02 Aug 01:22:13 01:25:13 17° 64° (ENE) 01:28:23 436.000
ISS 02 Aug 01:23:51 01:25:38 14° 3° (N) 01:27:26 145.825
RS-15 02 Aug 01:25:24 01:34:48 29° 334° (NNW) 01:44:20 29.354- 29.394
AIST 1 02 Aug 01:28:47 01:30:44 13° 274° (W) 01:32:28
UNISAT 6 02 Aug 01:34:54 01:38:01 17° 295° (WNW) 01:40:58 437.425
BUGSAT 1 02 Aug 01:36:46 01:40:43 50° 287° (WNW) 01:44:42 437.445
POPSAT HIP 1 02 Aug 01:37:06 01:40:56 32° 289° (WNW) 01:44:44 437.405
SWISSCUBE 02 Aug 01:41:42 01:45:45 28° 68° (ENE) 01:49:52 437.505
PHONESAT 2.4 02 Aug 01:41:51 01:44:51 27° 205° (SSW) 01:47:50 2401.200-2431.200
QB50P2 02 Aug 01:45:11 01:48:47 26° 291° (WNW) 01:52:19 145.880/145.840
SPROUT 02 Aug 01:50:39 01:54:20 27° 265° (W) 01:57:58 437.525
BEESAT 3 02 Aug 01:53:18 01:55:57 16° 319° (NW) 01:58:31 437.485
Cosmos 2504 02 Aug 01:58:18 02:00:41 12° 77° (ENE) 02:03:40 435.465 / 435.565
TISAT 1 02 Aug 01:58:56 02:02:46 34° 263° (W) 02:06:35 437.305
Oscar 19 02 Aug 02:00:27 02:03:45 17° 90° (E) 02:07:16 437.125/150
ITUPSAT 1 02 Aug 02:02:36 02:07:03 40° 71° (ENE) 02:11:35 437.325
DUCHIFAT 1 02 Aug 02:09:32 02:12:16 16° 294° (WNW) 02:14:50 145.980
QB50P1 02 Aug 02:13:45 02:16:09 14° 295° (WNW) 02:18:23 145.935-145.965
NANOSAT C BR1 02 Aug 02:14:39 02:17:01 14° 295° (WNW) 02:19:13 145.865
Cosmos 2491 02 Aug 02:20:29 02:26:53 22° 279° (W) 02:32:53 435.465 / 435.565
YUBILEINY 02 Aug 02:40:12 02:48:16 40° 289° (WNW) 02:56:18 435.215
O/OREOS (USA 219) 02 Aug 02:41:23 02:45:50 69° 294° (WNW) 02:50:20 437.305
AIST 2 02 Aug 02:52:13 02:55:35 22° 316° (NW) 02:58:52 435.215
BEESAT 02 Aug 02:57:58 03:02:40 55° 260° (W) 03:07:24 436.000
ISS 02 Aug 03:00:04 03:02:54 26° 23° (NNE) 03:05:44 145.825
Gurwin Techsat 1B 02 Aug 03:05:52 03:09:53 22° 92° (E) 03:14:03 435.225
STARS 02 Aug 03:08:03 03:11:06 19° 66° (ENE) 03:14:18 437.465
SWISSCUBE 02 Aug 03:19:14 03:23:32 31° 264° (W) 03:27:47 437.505
JAS-2 02 Aug 03:21:37 03:26:34 19° 85° (E) 03:31:52 435.910
ITAMSAT 1 02 Aug 03:22:39 03:26:59 27° 94° (E) 03:31:24 435.822/435.867
KKS-1 02 Aug 03:35:40 03:40:01 63° 75° (ENE) 03:44:25 437.445
Oscar 19 02 Aug 03:38:27 03:43:32 57° 288° (WNW) 03:48:37 437.125/150
ITUPSAT 1 02 Aug 03:41:23 03:45:08 22° 267° (W) 03:48:47 437.325
RS-15 02 Aug 03:43:58 03:52:19 22° 9° (N) 04:01:04 29.354- 29.394
Cosmos 2504 02 Aug 03:44:30 03:51:35 79° 95° (E) 03:59:16 435.465 / 435.565
MOZHAYETS 4 02 Aug 04:33:18 04:37:20 31° 69° (ENE) 04:41:27
HORYU 2 02 Aug 04:34:10 04:37:06 17° 91° (E) 04:40:11 437.375
ISS 02 Aug 04:36:18 04:39:28 48° 220° (SW) 04:42:37 145.825
STARS 02 Aug 04:43:12 04:47:18 39° 262° (W) 04:51:25 437.465
Gurwin Techsat 1B 02 Aug 04:45:04 04:50:09 46° 289° (WNW) 04:55:11 435.225
DANDE 02 Aug 04:45:54 04:47:59 17° 97° (E) 04:49:57 436.750
CUSAT 1 02 Aug 04:58:24 05:01:11 46° 97° (E) 05:03:42 437.405
ITAMSAT 1 02 Aug 05:01:51 05:06:36 37° 291° (WNW) 05:11:16 435.822/435.867
